Weather History for Dayton Wright, OH

Change the Weather History Date:

Monday, December 2, 2013

  Actual Average (KFFO) Record (KFFO)
Temperature  
Mean Temperature 40 °F -  
Max Temperature 48 °F 44 °F 64 °F (1998)
Min Temperature 33 °F 29 °F 19 °F (2005)
Degree Days  
Heating Degree Days 24    
Moisture  
Dew Point 34 °F    
Average Humidity 80    
Maximum Humidity 93    
Minimum Humidity 61    
Precipitation  
Precipitation 0.04 in - - ()
Sea Level Pressure  
Sea Level Pressure 29.87 in    
Wind  
Wind Speed 4 mph (ENE)    
Max Wind Speed 10 mph    
Max Gust Speed -    
Visibility 5 miles    
Events Rain    
Averages and records for this station are not official NWS values.
T = Trace of Precipitation, MM = Missing Value Source: NWS Daily Summary

Daily Weather History Graph

Daily Weather History Graph

Search for Another Location

Airport:

Trip Planner

Search our weather history database for the weather conditions in past years. The results will help you decide how hot, cold, wet, or windy it might be!

Date:

Astronomy

Dec. 02, 2013 Rise Set
Actual Time 7:39 AM EST 5:13 PM EST
Civil Twilight 7:09 AM EST 5:42 PM EST
Nautical Twilight 6:36 AM EST 6:16 PM EST
Astronomical Twilight 6:03 AM EST 6:48 PM EST
Moon 7:03 AM EST (12/2) 5:15 PM EST (12/2)
Length of Visible Light 10h 33m
Length of Day
9h 33m
Waning Crescent, 0% of the Moon is Illuminated
Dec 2
Waning Crescent
Dec 2
New
Dec 9
First Quarter
Dec 17
Full
Dec 25
Last Quarter

Hourly Weather History & Observations

Time (EST) Temp. Windchill Dew Point Humidity Pressure Visibility Wind Dir Wind Speed Gust Speed Precip Events Conditions
12:53 AM 39.9 °F - 34.0 °F 79% 29.94 in 9.0 mi Calm Calm - N/A   Overcast
1:53 AM 39.0 °F 36.8 °F 33.1 °F 79% 29.94 in 8.0 mi NW 3.5 mph - N/A   Scattered Clouds
2:53 AM 37.9 °F - 33.1 °F 83% 29.93 in 7.0 mi Calm Calm - N/A   Clear
3:53 AM 33.1 °F 30.0 °F 30.0 °F 89% 29.92 in 6.0 mi NE 3.5 mph - N/A   Partly Cloudy
4:53 AM 35.1 °F 31.0 °F 32.0 °F 89% 29.90 in 6.0 mi ENE 4.6 mph - N/A   Clear
5:53 AM 36.0 °F - 32.0 °F 86% 29.91 in 6.0 mi Calm Calm - N/A   Partly Cloudy
6:53 AM 35.1 °F 28.6 °F 32.0 °F 89% 29.91 in 4.0 mi NE 8.1 mph - N/A   Overcast
7:53 AM 35.1 °F 30.1 °F 32.0 °F 89% 29.90 in 3.0 mi ENE 5.8 mph - N/A   Mostly Cloudy
8:22 AM 33.8 °F 27.0 °F 30.2 °F 87% 29.89 in 2.5 mi NE 8.1 mph - N/A   Partly Cloudy
8:35 AM 35.6 °F 29.9 °F 32.0 °F 87% 29.89 in 3.0 mi NE 6.9 mph - N/A   Mostly Cloudy
8:53 AM 37.0 °F 32.4 °F 33.1 °F 86% 29.91 in 3.0 mi ENE 5.8 mph - N/A   Overcast
9:53 AM 39.9 °F 36.7 °F 34.0 °F 79% 29.90 in 5.0 mi ENE 4.6 mph - N/A   Haze
10:53 AM 43.0 °F 41.3 °F 35.1 °F 74% 29.90 in 6.0 mi East 3.5 mph - N/A   Haze
11:53 AM 44.1 °F 42.5 °F 35.1 °F 71% 29.88 in 7.0 mi Variable 3.5 mph - N/A   Overcast
12:53 PM 46.0 °F 44.8 °F 36.0 °F 68% 29.85 in 7.0 mi Variable 3.5 mph - N/A   Mostly Cloudy
1:53 PM 48.0 °F - 36.0 °F 63% 29.82 in 7.0 mi NE 5.8 mph - N/A   Clear
2:53 PM 48.9 °F - 36.0 °F 61% 29.81 in 8.0 mi Calm Calm - N/A   Mostly Cloudy
3:53 PM 48.0 °F - 36.0 °F 63% 29.81 in 8.0 mi Variable 3.5 mph - N/A   Overcast
4:53 PM 46.9 °F - 36.0 °F 66% 29.81 in 7.0 mi ENE 5.8 mph - N/A   Overcast
5:53 PM 45.0 °F 42.6 °F 36.0 °F 71% 29.82 in 8.0 mi East 4.6 mph - N/A   Overcast
6:53 PM 44.1 °F 39.0 °F 36.0 °F 73% 29.83 in 6.0 mi ENE 9.2 mph - N/A   Haze
7:53 PM 42.1 °F 36.1 °F 36.0 °F 79% 29.83 in 5.0 mi ENE 10.4 mph - N/A   Haze
8:53 PM 39.9 °F 33.9 °F 36.0 °F 86% 29.83 in 3.0 mi ENE 9.2 mph - 0.01 in Rain Light Rain
9:53 PM 39.0 °F 33.4 °F 36.0 °F 89% 29.83 in 2.5 mi East 8.1 mph - 0.02 in Rain Light Rain
10:01 PM 39.2 °F 33.6 °F 35.6 °F 87% 29.81 in 3.0 mi ENE 8.1 mph - 0.01 in Rain Light Rain
10:28 PM 39.2 °F 34.2 °F 35.6 °F 87% 29.81 in 2.5 mi ENE 6.9 mph - 0.01 in Rain Light Rain
10:53 PM 39.0 °F 32.8 °F 36.0 °F 89% 29.83 in 2.5 mi ENE 9.2 mph - 0.01 in Rain Light Rain
11:53 PM 37.9 °F 32.7 °F 36.0 °F 93% 29.83 in 2.5 mi East 6.9 mph - 0.00 in   Overcast